Regional Weather Roundup
Issued by NWS Sioux Falls, SD

Home | Current Version | Previous Version | Text Only | Print | Product List | Glossary Off
Versions: 1 2 3 4 5 6 7 8 9 10 11 12 13 14 15 16 17 18 19 20 21 22 23 24 25 26 27 28 29 30 31 32 33 34 35 36 37 38 39 40 41 42 43 44 45 46 47 48 49 50

000
ASUS43 KFSD 282310
RWRFSD

WEATHER ROUNDUP FOR SE SOUTH DAKOTA/SW MINNESOTA/NW IOWA
NATIONAL WEATHER SERVICE SIOUX FALLS SD
500 PM CST SUN DEC 28 2014

NOTE: "FAIR" INDICATES FEW OR NO CLOUDS BELOW 12,000 FEET WITH NO
SIGNIFICANT WEATHER AND OR OBSTRUCTIONS TO VISIBILITY.


SDZ038>040-050-052>070-290000-
SOUTHEAST SOUTH DAKOTA

CITY           SKY/WX    TMP DP  RH WIND       PRES   REMARKS
CHAMBERLAIN    CLOUDY    18  15  89 E10       30.14S WCI   6
HURON          CLOUDY    18  14  84 E9        30.20R WCI   7
MADISON        CLOUDY    18  18 100 E14       30.15S WCI   4
MITCHELL       CLOUDY    21  18  88 E8        30.19R WCI  11
SIOUX FALLS    CLOUDY    21  17  84 NE13      30.16S WCI   9
WINNER         CLOUDY    19  14  81 E14       30.09R WCI   6
YANKTON        CLOUDY    18  12  79 NE8       30.17R WCI   7
$$

MNZ071-072-080-081-089-090-097-098-290000-
SOUTHWEST MINNESOTA

CITY           SKY/WX    TMP DP  RH WIND       PRES   REMARKS
FAIRMONT       CLOUDY    18  12  79 N7        30.19R WCI   8
JACKSON        CLOUDY    19  16  86 NE7       30.18R WCI  10
LUVERNE        CLOUDY    23  19  86 NE13G18   30.17R WCI  11
MARSHALL       CLOUDY    18  10  73 N13       30.22R WCI   4
MONTEVIDEO     CLOUDY    18  14  86 N10       30.26R WCI   6
PIPESTONE      CLOUDY    19  18  93 NE8       30.16R WCI   9
REDWOOD FALLS  CLOUDY    23  17  78 NE5       30.22R WCI  17
TRACY          CLEAR     18  15  88 N8        30.20S WCI   7
WINDOM         CLOUDY    16  14  93 CALM      30.19R FOG
WORTHINGTON    CLOUDY    19 -26  12 NE15      30.17R WCI   5
$$

IAZ001>003-012>014-020>022-031-032-NEZ013-014-SDZ071-290000-
NORTHWEST IOWA

CITY           SKY/WX    TMP DP  RH WIND       PRES   REMARKS
CHEROKEE       MOCLDY    21  18  86 E3        30.16R
DENISON        PTCLDY    27  21  80 NE5       30.12R WCI  21
ESTHERVILLE    MOCLDY    17  14  88 N10       30.16S WCI   5
LE MARS        MOCLDY    19  18  93 N5        30.16S WCI  13
ORANGE CITY    CLOUDY    21  18  86 NE7       30.14S WCI  13
SHELDON        CLOUDY    19  18  93 NE9       30.15R WCI   9
SIOUX CITY     MOCLDY    21  15  78 CALM      30.16R
SPENCER        CLOUDY    21  16  81 NE13      30.16R WCI   9
STORM LAKE     MOCLDY    18  16  93 E8        30.15R WCI   7
$$

ABBREVIATIONS USED IN REMARKS
   TC - TEMPERATURE IN CELSIUS
  WCI - WIND CHILL INDEX
   HX - HEAT INDEX
  VSB - VISIBILITY




USA.gov is the U.S. government's official web portal to all federal, state and local government web resources and services.